Location: Cahas Mountain Overlook
(37.0833°N, 80.1000°W)
Time: 09:45:49
(UTC-05:00)

S-56A Canister/Altair - Pass Details

Date: 30 November 2023
Orbit: 640 x 2488 km, 38.9° (Epoch: 25 February)

Event Time Altitude Azimuth Distance (km) Brightness Sun altitude
Rises 13:03:04 0° 238° (WSW) 2,983 11.2 29.9°
Reaches altitude 10° 13:05:25 10° 233° (SW) 2,024 10.6 29.7°
Maximum altitude 13:09:46 54° 156° (SSE) 788 8.6 29.5°
Drops below altitude 10° 13:14:32 10° 79° (E) 2,227 9.7 29.2°
Sets 13:17:15 0° 75° (ENE) 3,318 10.5 29.1°
